Location: Northam
(31.6525°S, 116.6655°E)
Time: 22:40:40
(UTC+08:00)

Hubble Space Telescope - Visible Passes

Search period start: 15 May 2021 00:00
Search period end: 25 May 2021 00:00
Orbit: 535 x 539 km, 28.5° (Epoch: 14 May)

Date Brightness Start Highest point End Pass type
(mag) Time Alt. Az. Time Alt. Az. Time Alt. Az.
15 May 3.0 18:02:53 10° N 18:05:15 15° NNE 18:07:38 10° ENE visible
15 May 2.9 19:42:06 10° NW 19:43:55 22° NW 19:43:55 22° NW visible
16 May 2.8 17:51:20 10° NNW 17:54:14 18° NNE 17:57:08 10° ENE visible
16 May 2.3 19:31:03 10° WNW 19:33:39 31° NW 19:33:39 31° NW visible
17 May 1.7 19:20:02 10° WNW 19:23:21 42° NNW 19:23:21 42° NNW visible
18 May 1.2 19:09:03 10° WNW 19:13:03 51° N 19:13:03 51° N visible
19 May 1.1 18:58:05 10° WNW 19:02:09 54° N 19:02:45 49° NE visible
20 May 1.2 18:47:07 10° WNW 18:51:13 55° N 18:52:27 38° ENE visible
21 May 1.2 18:36:10 10° W 18:40:16 55° N 18:42:11 28° ENE visible
21 May 4.1 20:17:22 10° W 20:17:30 11° W 20:17:30 11° W visible
22 May 1.3 18:25:15 10° W 18:29:19 54° N 18:31:58 20° ENE visible
22 May 3.8 20:06:32 10° W 20:07:17 14° WNW 20:07:17 14° WNW visible
23 May 1.4 18:14:19 10° W 18:18:22 51° N 18:21:49 14° ENE visible
23 May 3.4 19:55:43 10° WNW 19:57:09 18° WNW 19:57:09 18° WNW visible
24 May 1.6 18:03:24 10° W 18:07:25 47° N 18:11:26 10° ENE visible
24 May 3.1 19:44:58 10° WNW 19:47:05 20° NW 19:47:05 20° NW visible
